[[{"header":{"parameterUnit":"m.s-1","parameterCategory":1,"la1":30.2991,"la2":30.254,"lo1":-89.0895,"lo2":-89.0444,"dy":0.0017,"dx":0.0017,"nx":28,"ny":28,"refTime":"2024-12-15T03:00:00:Z","depth":0,"parameterNumber":2,"parameterNumberName":"U-component_of_WINDS"},"data":[0,0,0,0,0,0,0,0,0,0,0,0,0,0,0,0,0,0,0,0,0,0,0,0,0,0,0,0,0,0,0,0,0,0,0,0,0,0,0,0,0,0,0,0,0,0,0,0,0,0,0,0,0,0,0,0,0,0,-3.8157,-3.8158,0,-3.818,-3.818,-3.818,-3.8115,-3.8113,-3.8111,-3.8109,-3.8136,-3.8139,-3.8141,0,0,0,0,0,0,0,0,0,0,0,0,0,-3.8064,-3.8066,-3.8157,-3.8158,-3.8158,-3.818,-3.818,-3.818,-3.8116,-3.8113,-3.8111,-3.8108,-3.8135,-3.8138,-3.8141,0,0,0,0,0,0,0,0,0,0,0,0,0,-3.8097,-3.8066,-3.8157,-3.8128,-3.8126,-3.818,-3.818,-3.818,-3.8116,-3.8113,-3.811,-3.8107,-3.8134,-3.8138,-3.8142,-3.8226,0,0,-3.8154,-3.8155,0,0,0,0,0,0,0,0,-3.8095,-3.8101,-3.8132,-3.813,-3.8128,-3.8141,-3.8157,-3.8196,-3.8117,-3.812,-3.8109,-3.8106,-3.8141,-3.8144,-3.8155,-3.8227,-3.8228,-3.8154,-3.8156,-3.8158,-3.8159,0,0,0,0,0,0,0,-3.8093,-3.8099,-3.8166,-3.8133,-3.813,-3.8116,-3.8117,-3.8164,-3.8147,-3.8119,-3.8115,-3.8118,-3.8139,-3.8151,-3.8155,-3.8229,-3.8154,-3.8157,-3.816,-3.8161,-3.8374,-3.8377,0,0,0,0,0,0,-3.8094,-3.8098,-3.8166,-3.8167,-3.8104,-3.812,-3.8121,-3.814,-3.8146,-3.8144,-3.8121,-3.8115,-3.8146,-3.815,-3.8156,-3.8256,-3.8158,-3.8162,-3.8164,-3.8371,-3.8375,-3.8378,0,0,0,0,0,0,-3.8092,-3.8101,-3.8165,-3.8131,-3.8138,-3.8125,-3.8146,-3.8142,-3.8154,-3.8147,-3.8144,-3.8136,-3.8144,-3.815,-3.8209,-3.8256,-3.8163,-3.8167,-3.8367,-3.8372,-3.8377,-3.8456,0,0,0,0,0,0,-3.809,-3.81,-3.8131,-3.8132,-3.814,-3.8217,-3.8149,-3.8145,-3.8161,-3.8154,-3.8161,-3.8159,-3.8142,-3.8204,-3.8213,-3.8259,-3.817,-3.8363,-3.8369,-3.8375,-3.8449,-3.8463,-3.8475,0,0,0,0,0,-3.8087,-3.8153,-3.8133,-3.8141,-3.8178,-3.8219,-3.8224,-3.8202,-3.8165,-3.8196,-3.8192,-3.8159,-3.8249,-3.821,-3.822,-3.8269,-3.836,-3.8367,-3.8375,-3.8444,-3.8461,-3.8475,0,0,0,0,0,0,-3.8158,-3.8152,-3.813,-3.8198,-3.821,-3.8208,-3.8247,-3.822,-3.8243,-3.8236,-3.8208,-3.8211,-3.8276,-3.8278,-3.8235,-3.8351,-3.8298,-3.8308,-3.8347,-3.8363,-3.8376,-3.8375,-3.8173,0,0,0,0,0,-3.8182,-3.8214,-3.8208,-3.8269,-3.8276,-3.8261,-3.8278,-3.826,-3.8271,-3.8276,-3.8276,-3.829,-3.8321,-3.8342,-3.8371,-3.845,-3.8451,-3.8488,-3.8501,-3.8511,-3.852,-3.8564,-3.8581,-3.8403,-3.8403,-3.8403,0,0,-3.8231,-3.8232,-3.8254,-3.8284,-3.829,-3.8327,-3.8265,-3.8306,-3.8333,-3.8283,-3.8338,-3.8339,-3.8353,-3.8422,-3.8453,-3.8426,-3.857,-3.8521,-3.8529,-3.8533,-3.8574,-3.859,-3.8605,-3.8408,-3.8407,-3.8406,0,0,-3.8339,-3.8342,-3.8394,-3.8402,-3.8413,-3.8403,-3.8416,-3.8419,-3.8417,-3.8472,-3.8436,-3.8469,-3.8523,-3.8535,-3.8548,-3.8663,-3.8634,-3.8673,-3.874,-3.8783,-3.8797,-3.881,-3.8852,-3.8868,-3.8682,-3.8682,-3.8682,0,-3.8399,-3.8451,-3.8425,-3.8468,-3.8483,-3.8438,-3.8492,-3.8502,-3.8522,-3.8534,-3.8503,-3.8572,-3.8578,-3.865,-3.8678,-3.869,-3.8705,-3.8672,-3.8797,-3.8809,-3.8821,-3.8861,-3.8877,-3.8687,-3.8686,-3.8686,-3.8685,0,-3.8525,-3.8562,-3.8603,-3.8622,-3.8642,-3.869,-3.8673,-3.8697,-3.8678,-3.8671,-3.873,-3.8735,-3.8765,-3.8781,-3.8762,-3.8852,-3.8835,-3.8801,-3.8748,-3.8843,-3.888,-3.8895,-3.8693,-3.8692,-3.869,-3.8689,0,0,-3.8678,-3.8684,-3.8699,-3.8708,-3.8718,-3.8747,-3.8794,-3.8822,-3.8843,-3.8859,-3.89,-3.8948,-3.8917,-3.8932,-3.8915,-3.8953,-3.9046,-3.8915,-3.8915,-3.894,-3.9146,-3.9172,-3.919,-3.9026,-3.9029,-3.9031,-3.9145,0,-3.8785,-3.8865,-3.8844,-3.8924,-3.8959,-3.8918,-3.896,-3.8971,-3.8967,-3.8997,-3.8993,-3.9028,-3.8985,-3.8994,-3.9029,-3.9027,-3.9087,-3.9018,-3.9065,-3.9067,-3.9064,-3.9209,-3.9236,-3.9343,-3.916,-3.9162,-3.9164,0,-3.892,-3.8941,-3.9025,-3.9031,-3.9044,-3.9082,-3.9107,-3.9136,-3.9149,-3.9144,-3.9161,-3.9137,-3.9186,-3.9132,-3.92,-3.9154,-3.9172,-3.9175,-3.9178,-3.9182,-3.9122,-3.9218,-3.9376,-3.9393,-3.9186,-3.9185,-3.9183,0,-3.9025,-3.9074,-3.9131,-3.914,-3.9148,-3.9175,-3.918,-3.919,-3.9209,-3.9232,-3.9244,-3.9272,-3.9288,-3.9312,-3.9297,-3.9258,-3.9369,-3.9312,-3.9367,-3.9368,-3.9392,-3.9391,-3.9557,-3.9403,-3.9403,-3.9402,-3.9402,0,-3.9147,-3.9201,-3.9178,-3.9213,-3.9272,-3.9249,-3.9308,-3.9308,-3.9318,-3.9354,-3.9321,-3.9356,-3.9334,-3.9367,-3.9356,-3.9415,-3.9423,-3.9421,-3.9418,-3.9424,-3.9425,-3.9436,-3.9429,-3.9407,-3.9406,-3.9405,-3.9404,0,-3.9274,-3.9261,-3.932,-3.9323,-3.9325,-3.9369,-3.9371,-3.9405,-3.9399,-3.9445,-3.9454,-3.9446,-3.9484,-3.9471,-3.9512,-3.9505,-3.958,-3.9567,-3.9576,-3.9573,-3.9628,-3.9624,-3.9808,-3.9831,-3.9662,-3.9663,-3.9665,0,-3.9353,-3.9393,-3.94,-3.9421,-3.9428,-3.9463,-3.9482,-3.9461,-3.9483,-3.9502,-3.9534,-3.9568,-3.9595,-3.9658,-3.9656,-3.9688,-3.9676,-3.9738,-3.968,-3.9687,-3.9678,-3.9676,-3.9681,-3.975,-3.9752,-3.9753,-3.9755,0,-3.9495,-3.9487,-3.9515,-3.9542,-3.9566,-3.9586,-3.9604,-3.9624,-3.9604,-3.9631,-3.9668,-3.9689,-3.9731,-3.9767,-3.9796,-3.9803,-3.9777,-3.9773,-3.9788,-3.9795,-3.9799,-3.9799,-3.9608,-3.9769,-3.9768,-3.9766,-3.9766,-3.9765,-3.9601,-3.9635,-3.9646,-3.9679,-3.969,-3.9708,-3.974,-3.9738,-3.9769,-3.9801,-3.9787,-3.9832,-3.9846,-3.9882,-3.9893,-3.9929,-3.9905,-3.9926,-3.9931,-3.9937,-3.9944,-3.9793,-3.9934,-3.9933,-3.9933,-3.9933,-3.9932,0,-3.9742,-3.9748,-3.9778,-3.9804,-3.9831,-3.9803,-3.9821,-3.9846,-3.9885,-3.99,-3.9927,-3.9972,-4.0007,-4.0009,-4.0042,-4.0071,-4.006,-4.008,-4.0078,-4.0081,-3.9963,-3.9947,-4.0089,-4.0089,-4.0089,-4.0089,-4.0088,-4.0088,-3.9819,-3.9876,-3.987,-3.9933,-3.9938,-3.998,-3.9994,-4.0011,-4.0023,-4.0074,-4.0102,-4.0103,-4.0113,-4.0147,-4.0179,-4.0179,-4.0193,-4.0219,-4.0214,-4.0104,-4.0089,-4.0074,-4.0059,-4.0222,-4.0222,-4.0329,-4.033,-4.033]},{"header":{"parameterUnit":"m.s-1","parameterCategory":1,"la1":30.2991,"la2":30.254,"lo1":-89.0895,"lo2":-89.0444,"dy":0.0017,"dx":0.0017,"nx":28,"ny":28,"refTime":"2024-12-15T03:00:00:Z","depth":0,"parameterNumber":3,"parameterNumberName":"V-component_of_WINDS"},"data":[0,0,0,0,0,0,0,0,0,0,0,0,0,0,0,0,0,0,0,0,0,0,0,0,0,0,0,0,0,0,0,0,0,0,0,0,0,0,0,0,0,0,0,0,0,0,0,0,0,0,0,0,0,0,0,0,0,0,-0.2526,-0.2525,0,-0.2474,-0.2474,-0.2473,-0.2394,-0.2392,-0.2391,-0.2389,-0.2338,-0.2338,-0.2338,0,0,0,0,0,0,0,0,0,0,0,0,0,-0.2555,-0.2555,-0.2526,-0.2525,-0.2525,-0.2475,-0.2474,-0.2473,-0.2394,-0.2392,-0.239,-0.2389,-0.2338,-0.2338,-0.2338,0,0,0,0,0,0,0,0,0,0,0,0,0,-0.2527,-0.2555,-0.2526,-0.2479,-0.2474,-0.2475,-0.2474,-0.2473,-0.2394,-0.2392,-0.239,-0.2388,-0.2338,-0.2338,-0.2338,-0.2381,0,0,-0.2338,-0.2338,0,0,0,0,0,0,0,0,-0.2529,-0.2526,-0.2486,-0.2482,-0.2477,-0.2438,-0.2465,-0.2442,-0.2395,-0.2425,-0.2389,-0.2387,-0.2373,-0.237,-0.2366,-0.2379,-0.2377,-0.2338,-0.2338,-0.2338,-0.2338,0,0,0,0,0,0,0,-0.2531,-0.2528,-0.2506,-0.2486,-0.248,-0.246,-0.2454,-0.2461,-0.2412,-0.2422,-0.2416,-0.2411,-0.237,-0.2366,-0.2364,-0.2376,-0.2338,-0.2338,-0.2338,-0.2338,-0.242,-0.2422,0,0,0,0,0,0,-0.254,-0.253,-0.2507,-0.2504,-0.2498,-0.2462,-0.2455,-0.2453,-0.2411,-0.2403,-0.2413,-0.2407,-0.2367,-0.2364,-0.2362,-0.2408,-0.2338,-0.2338,-0.2338,-0.2418,-0.2421,-0.2423,0,0,0,0,0,0,-0.2541,-0.2539,-0.2509,-0.2515,-0.251,-0.2463,-0.2462,-0.2453,-0.2448,-0.2405,-0.2396,-0.2417,-0.2365,-0.2362,-0.2376,-0.2405,-0.2338,-0.2338,-0.2415,-0.2419,-0.2422,-0.2502,0,0,0,0,0,0,-0.2542,-0.2539,-0.2555,-0.2516,-0.251,-0.2525,-0.2464,-0.2453,-0.2448,-0.2441,-0.2406,-0.2398,-0.2363,-0.2377,-0.2376,-0.2404,-0.2338,-0.2413,-0.2417,-0.2421,-0.2497,-0.2508,-0.2517,0,0,0,0,0,-0.2543,-0.2581,-0.2557,-0.2554,-0.2529,-0.2527,-0.2523,-0.2482,-0.2451,-0.2466,-0.2438,-0.24,-0.2402,-0.2379,-0.2378,-0.2406,-0.2411,-0.2416,-0.242,-0.2492,-0.2506,-0.2517,0,0,0,0,0,0,-0.2625,-0.2575,-0.2547,-0.2573,-0.2555,-0.2514,-0.2532,-0.2498,-0.2488,-0.2481,-0.243,-0.2423,-0.2444,-0.2426,-0.2402,-0.2444,-0.24,-0.2405,-0.2455,-0.2468,-0.2478,-0.2482,-0.2338,0,0,0,0,0,-0.2646,-0.2648,-0.2604,-0.2631,-0.2623,-0.2579,-0.2577,-0.2546,-0.2525,-0.2517,-0.249,-0.2472,-0.2468,-0.2467,-0.2461,-0.2494,-0.2484,-0.2512,-0.2522,-0.2531,-0.2536,-0.255,-0.2562,-0.2439,-0.2439,-0.2439,0,0,-0.269,-0.2662,-0.2667,-0.2647,-0.2629,-0.2633,-0.2573,-0.258,-0.2582,-0.2518,-0.253,-0.251,-0.2486,-0.2509,-0.2518,-0.2495,-0.2568,-0.2537,-0.2545,-0.2545,-0.2557,-0.2568,-0.2579,-0.2442,-0.2442,-0.2441,0,0,-0.277,-0.275,-0.277,-0.2753,-0.2726,-0.2696,-0.2701,-0.2665,-0.2648,-0.2659,-0.2611,-0.2613,-0.2608,-0.2592,-0.2584,-0.2657,-0.2621,-0.2657,-0.271,-0.2725,-0.2735,-0.2743,-0.2768,-0.2778,-0.2662,-0.2662,-0.2662,0,-0.2828,-0.2831,-0.2785,-0.2794,-0.2786,-0.2727,-0.2747,-0.2733,-0.2706,-0.2702,-0.2676,-0.2668,-0.2647,-0.2666,-0.2683,-0.2679,-0.2682,-0.2661,-0.2737,-0.2745,-0.2752,-0.2776,-0.2785,-0.2666,-0.2666,-0.2665,-0.2665,0,-0.2903,-0.2905,-0.2925,-0.2899,-0.2893,-0.2908,-0.2863,-0.2863,-0.2833,-0.2806,-0.2817,-0.279,-0.2777,-0.2779,-0.275,-0.2793,-0.278,-0.2746,-0.2701,-0.2769,-0.279,-0.2799,-0.2673,-0.2671,-0.267,-0.2669,0,0,-0.3035,-0.2982,-0.299,-0.2977,-0.2943,-0.2944,-0.2955,-0.2942,-0.2942,-0.2926,-0.2933,-0.293,-0.2898,-0.2889,-0.2857,-0.287,-0.2928,-0.2834,-0.2833,-0.2852,-0.2973,-0.2998,-0.3009,-0.2904,-0.2905,-0.2907,-0.2975,0,-0.3108,-0.3124,-0.3082,-0.3109,-0.311,-0.3054,-0.3063,-0.3043,-0.3018,-0.3015,-0.2987,-0.2985,-0.2944,-0.2938,-0.2948,-0.2919,-0.2952,-0.2913,-0.291,-0.2911,-0.2918,-0.3021,-0.3048,-0.3113,-0.2983,-0.2984,-0.2985,0,-0.3197,-0.3183,-0.321,-0.3172,-0.3171,-0.3181,-0.3164,-0.3163,-0.3139,-0.3119,-0.3108,-0.307,-0.3078,-0.3034,-0.3044,-0.3019,-0.3015,-0.3,-0.3002,-0.3,-0.2952,-0.3021,-0.3133,-0.3143,-0.2998,-0.2997,-0.2996,0,-0.329,-0.3278,-0.3292,-0.3283,-0.324,-0.3248,-0.323,-0.3203,-0.3198,-0.3184,-0.3179,-0.3167,-0.316,-0.315,-0.311,-0.3082,-0.3124,-0.3078,-0.3108,-0.3109,-0.312,-0.312,-0.3233,-0.3118,-0.3118,-0.3118,-0.3117,0,-0.3376,-0.3395,-0.3333,-0.3342,-0.336,-0.3311,-0.3331,-0.3308,-0.3284,-0.3287,-0.3238,-0.3242,-0.3188,-0.3186,-0.3154,-0.3166,-0.3164,-0.3148,-0.3139,-0.3152,-0.3154,-0.3149,-0.3144,-0.312,-0.312,-0.3119,-0.3119,0,-0.3484,-0.3443,-0.3454,-0.3412,-0.3402,-0.3417,-0.3381,-0.3387,-0.3358,-0.3362,-0.336,-0.3315,-0.3309,-0.3268,-0.3254,-0.3232,-0.3256,-0.3239,-0.3264,-0.3259,-0.3291,-0.3289,-0.3405,-0.3417,-0.3295,-0.3296,-0.3297,0,-0.3542,-0.3554,-0.3513,-0.3511,-0.3495,-0.3493,-0.3486,-0.3438,-0.3434,-0.3406,-0.3415,-0.3405,-0.3395,-0.3389,-0.3355,-0.3343,-0.3325,-0.3366,-0.3323,-0.3335,-0.3325,-0.3324,-0.3325,-0.3376,-0.3377,-0.3378,-0.3379,0,-0.3649,-0.3627,-0.362,-0.3605,-0.3598,-0.3585,-0.3568,-0.3569,-0.3516,-0.3513,-0.3506,-0.3498,-0.3482,-0.3473,-0.3455,-0.3437,-0.3399,-0.3393,-0.3399,-0.3413,-0.3427,-0.3419,-0.3289,-0.3391,-0.339,-0.3389,-0.3388,-0.3388,-0.3732,-0.374,-0.3712,-0.3705,-0.3687,-0.3672,-0.3675,-0.3646,-0.3639,-0.3622,-0.3594,-0.3592,-0.3565,-0.3537,-0.3521,-0.3518,-0.3496,-0.3506,-0.3508,-0.3511,-0.3518,-0.3427,-0.3515,-0.3514,-0.3514,-0.3514,-0.3513,0,-0.3836,-0.3815,-0.3809,-0.3786,-0.378,-0.3745,-0.3724,-0.3721,-0.3719,-0.3697,-0.3688,-0.368,-0.367,-0.3634,-0.3621,-0.3625,-0.3607,-0.3623,-0.3622,-0.3618,-0.3538,-0.3534,-0.3637,-0.3637,-0.3637,-0.3637,-0.3637,-0.3637,-0.389,-0.3901,-0.3877,-0.3878,-0.3856,-0.3853,-0.3844,-0.3829,-0.3811,-0.3804,-0.3796,-0.3772,-0.3745,-0.3728,-0.3718,-0.3707,-0.3704,-0.3726,-0.371,-0.3636,-0.3624,-0.3613,-0.3608,-0.3726,-0.3726,-0.379,-0.379,-0.3791]}]]